Terug naar catalogus

STARLINK-3527

ActiefCommunicatieVLEO
NORAD 51726·PAYLOAD·🇺🇸 United States

Gelanceerd Feb 21, 2022 vanaf Cape Canaveral Space Force Station

Loading…

Volgende Passages (komende 24 uur)

TLE

VersSource: CelesTrak SupGP

Epoch: Sep 15, 2026, 01:17 UTC

1 51726C 22016N   26258.05395833 -.00008530  00000+0 -45890-3 0  2585
2 51726  53.2127 185.4947 0002166  92.4256 249.7801 15.14358599    16

Volg STARLINK-3527 in realtime met AllMySat

Download on the App Store